Find Kosmos-415

NORAD ID: 5214 Int'l Des: 1971-041 Owner: OKB10 Country: SU operational
LEOCIRCULAR

实时位置

正在加载3D地球...

关于 Kosmos-415

正在加载描述...

即将过境

Passes for default location (London). Set your location on the main map for personalized predictions.

高度历史

Loading altitude history...

两行轨道根数

1 5214U 71041E 26106.60446174 .00000009 00000-0 16742-3 0 9994
2 5214 74.0148 168.3225 0031307 45.0119 315.3459 12.47495785502008
Epoch: Apr 16, 2026 • Age: 19 hours

当前状态

高度 1517.2 km
速度 7.09 km/s
星下点 -47.08°S, 23.86°E
类型 other

Most Searched